Torna al catalogo

STARLINK-1942

AttivoComunicazioniVLEO
NORAD 46794·PAYLOAD·🇺🇸 United States

Lanciato Oct 24, 2020 da Cape Canaveral Space Force Station

Loading…

Prossimi Passaggi (prossime 24 ore)

TLE

AggiornatoSource: CelesTrak SupGP

Epoca: Sep 14, 2026, 17:15 UTC

1 46794C 20074BH  26257.71923611  .01247600  00000+0  92642-3 0  2577
2 46794  53.0221  79.1082 0009360 280.5247 106.9986 16.14000658    19

Traccia STARLINK-1942 in tempo reale con AllMySat

Download on the App Store